Location: Monfort
(47.1967°N, 0.2115°W)
Time: 04:28:02
(UTC+00:00)

CSL-04 Rocket - Pass Details

Date: 24 October 2020
Orbit: 805 x 861 km, 98.9° (Epoch: 01 December)

Event Time Altitude Azimuth Distance (km) Brightness Sun altitude
Rises 18:18:16 0° 146° (SE) 3,427 6.6 -14.5°
Reaches altitude 10° 18:20:42 10° 141° (SE) 2,493 5.8 -14.9°
Maximum altitude 18:26:01 49° 68° (ENE) 1,098 3.9 -15.8°
Drops below altitude 10° 18:31:19 10° 355° (N) 2,493 6.2 -16.7°
Sets 18:33:45 0° 350° (N) 3,426 7.0 -17.1°
